,,,PA_Meas_PMT16A,,PR_Meas_QMR101_102,,RH_Meas_QMH101,,SR_Meas_QMS101,,TA_Meas_QMH101,,GenWind,,GenWind,
date,time,status,PA,status,PR,status,RH,status,SR,status,TA,status,DirAvg,status,SpdAvg,
2010-01-14, 00:00:04,VALID,1005.33,VALID,0,VALID,94.6363,VALID,0,VALID,25.0079,VALID,338,VALID,0.175781,
2010-01-14, 00:01:04,VALID,1005.28,VALID,0,VALID,94.6286,VALID,0,VALID,24.9671,VALID,336,VALID,0.0796875,
2010-01-14, 00:02:04,VALID,1005.29,VALID,0,VALID,94.6286,VALID,0,VALID,24.9885,VALID,312,VALID,0.358203,
2010-01-14, 00:03:04,VALID,1005.27,VALID,0,VALID,94.621,VALID,0,VALID,24.969,VALID,298,VALID,1.03672,
2010-01-14, 00:04:04,VALID,1005.27,VALID,0,VALID,94.6286,VALID,0,VALID,24.9671,VALID,308,VALID,0.327344,
2010-01-14, 00:05:04,VALID,1005.24,VALID,0,VALID,94.6363,VALID,0,VALID,24.969,VALID,308,VALID,0,
2010-01-14, 00:06:04,VALID,1005.23,VALID,0,VALID,94.6515,VALID,0,VALID,24.9671,VALID,308,VALID,0,
2010-01-14, 00:07:04,VALID,1005.25,VALID,0,VALID,94.621,VALID,0,VALID,24.9885,VALID,308,VALID,0,
2010-01-14, 00:08:04,VALID,1005.23,VALID,0,VALID,94.6515,VALID,0,VALID,24.9671,VALID,303,VALID,0,
2010-01-14, 00:09:04,VALID,1005.22,VALID,0,VALID,94.6515,VALID,0,VALID,24.969,VALID,303,VALID,0,
2010-01-14, 00:10:04,VALID,1005.22,VALID,0,VALID,94.6591,VALID,0,VALID,24.969,VALID,303,VALID,0,
2010-01-14, 00:11:04,VALID,1005.25,VALID,0,VALID,94.6439,VALID,0,VALID,24.969,VALID,303,VALID,0,
2010-01-14, 00:12:04,VALID,1005.21,VALID,0,VALID,94.6515,VALID,0,VALID,24.9495,VALID,303,VALID,0,
2010-01-14, 00:13:04,VALID,1005.22,VALID,0,VALID,94.6439,VALID,0,VALID,24.9476,VALID,303,VALID,0,
2010-01-14, 00:14:04,VALID,1005.23,VALID,0,VALID,94.6668,VALID,0,VALID,24.969,VALID,303,VALID,0,
2010-01-14, 00:15:04,VALID,1005.25,VALID,0,VALID,94.6515,VALID,0,VALID,24.9495,VALID,311,VALID,0,
2010-01-14, 00:16:04,VALID,1005.24,VALID,0,VALID,94.6439,VALID,0,VALID,24.9495,VALID,350,VALID,0,
2010-01-14, 00:17:04,VALID,1005.22,VALID,0,VALID,94.6744,VALID,0,VALID,24.9495,VALID,350,VALID,0,
2010-01-14, 00:18:04,VALID,1005.22,VALID,0,VALID,94.6668,VALID,0,VALID,24.9495,VALID,350,VALID,0,
2010-01-14, 00:19:04,VALID,1005.21,VALID,0,VALID,94.6744,VALID,0,VALID,24.9495,VALID,350,VALID,0,
2010-01-14, 00:20:04,VALID,1005.21,VALID,0,VALID,94.6591,VALID,0,VALID,24.9476,VALID,309,VALID,0,
2010-01-14, 00:21:04,VALID,1005.19,VALID,0,VALID,94.6668,VALID,0,VALID,24.969,VALID,310,VALID,0,
2010-01-14, 00:22:04,VALID,1005.16,VALID,0.5,VALID,94.6515,VALID,0,VALID,24.969,VALID,336,VALID,0,
2010-01-14, 00:23:04,VALID,1005.18,VALID,0,VALID,94.6591,VALID,0,VALID,24.9495,VALID,310,VALID,0,
2010-01-14, 00:24:04,VALID,1005.15,VALID,0,VALID,94.6591,VALID,0,VALID,24.969,VALID,310,VALID,0,
2010-01-14, 00:25:04,VALID,1005.13,VALID,0,VALID,94.6591,VALID,0,VALID,24.9671,VALID,319,VALID,0,
2010-01-14, 00:26:04,VALID,1005.14,VALID,0,VALID,94.6744,VALID,0,VALID,24.969,VALID,319,VALID,0,
2010-01-14, 00:27:04,VALID,1005.14,VALID,0,VALID,94.6668,VALID,0,VALID,24.9476,VALID,328,VALID,0,
2010-01-14, 00:28:04,VALID,1005.13,VALID,0,VALID,94.6744,VALID,0,VALID,24.969,VALID,315,VALID,0,
2010-01-14, 00:29:04,VALID,1005.09,VALID,0,VALID,94.6668,VALID,0,VALID,24.9885,VALID,304,VALID,0,
2010-01-14, 00:30:04,VALID,1005.1,VALID,0,VALID,94.6668,VALID,0,VALID,24.969,VALID,304,VALID,0,
2010-01-14, 00:31:04,VALID,1005.08,VALID,0,VALID,94.682,VALID,0,VALID,24.9671,VALID,304,VALID,0,
2010-01-14, 00:32:04,VALID,1005.06,VALID,0,VALID,94.6744,VALID,0,VALID,24.9671,VALID,304,VALID,0,
2010-01-14, 00:33:04,VALID,1005.06,VALID,0,VALID,94.6744,VALID,0,VALID,24.9885,VALID,286,VALID,0.969922,
2010-01-14, 00:34:04,VALID,1005.04,VALID,0,VALID,94.6668,VALID,0,VALID,24.9885,VALID,282,VALID,0.233594,
2010-01-14, 00:35:04,VALID,1005.04,VALID,0,VALID,94.682,VALID,0,VALID,25.0079,VALID,285,VALID,0.637891,
2010-01-14, 00:36:04,VALID,1005.01,VALID,0,VALID,94.6744,VALID,0,VALID,24.9866,VALID,285,VALID,0,
2010-01-14, 00:37:04,VALID,1005.03,VALID,0,VALID,94.6668,VALID,0,VALID,25.0293,VALID,285,VALID,0,
2010-01-14, 00:38:04,VALID,1005.02,VALID,0,VALID,94.6668,VALID,0,VALID,24.9866,VALID,295,VALID,0.220313,
2010-01-14, 00:39:04,VALID,1005.02,VALID,0,VALID,94.6744,VALID,0,VALID,25.0469,VALID,301,VALID,0.704297,
2010-01-14, 00:40:04,VALID,1005.04,VALID,0,VALID,94.6744,VALID,0,VALID,25.0663,VALID,320,VALID,0.267188,
2010-01-14, 00:41:04,VALID,1005.02,VALID,0,VALID,94.6591,VALID,0,VALID,25.0469,VALID,319,VALID,0.268359,
2010-01-14, 00:42:04,VALID,1005.02,VALID,0,VALID,94.6668,VALID,0,VALID,25.0469,VALID,332,VALID,0.209375,
2010-01-14, 00:43:04,VALID,1005,VALID,0,VALID,94.682,VALID,0,VALID,25.0274,VALID,332,VALID,0,
2010-01-14, 00:44:04,VALID,1004.99,VALID,0,VALID,94.6897,VALID,0,VALID,25.006,VALID,334,VALID,0.460547,
2010-01-14, 00:45:04,VALID,1005.01,VALID,0,VALID,94.6973,VALID,0,VALID,25.006,VALID,338,VALID,0.460156,
2010-01-14, 00:46:04,VALID,1005.01,VALID,0,VALID,94.7125,VALID,0,VALID,25.0079,VALID,347,VALID,0.467969,
2010-01-14, 00:47:04,VALID,1005,VALID,0,VALID,94.7125,VALID,0,VALID,24.9671,VALID,342,VALID,0,
2010-01-14, 00:48:04,VALID,1004.97,VALID,0,VALID,94.7125,VALID,0,VALID,24.9671,VALID,342,VALID,0.0304688,
2010-01-14, 00:49:04,VALID,1004.98,VALID,0,VALID,94.7125,VALID,0,VALID,24.9885,VALID,343,VALID,0.207031,
2010-01-14, 00:50:04,VALID,1004.95,VALID,0,VALID,94.6897,VALID,0,VALID,24.9671,VALID,343,VALID,0.0195313,
2010-01-14, 00:51:04,VALID,1004.92,VALID,0,VALID,94.7049,VALID,0,VALID,25.0098,VALID,343,VALID,0,
2010-01-14, 00:52:04,VALID,1004.9,VALID,0,VALID,94.6973,VALID,0,VALID,24.969,VALID,343,VALID,0,
2010-01-14, 00:53:04,VALID,1004.89,VALID,0,VALID,94.7125,VALID,0,VALID,24.9885,VALID,343,VALID,0,
2010-01-14, 00:54:04,VALID,1004.89,VALID,0,VALID,94.6973,VALID,0,VALID,24.9885,VALID,343,VALID,0,
2010-01-14, 00:55:04,VALID,1004.88,VALID,0,VALID,94.6973,VALID,0,VALID,24.9671,VALID,343,VALID,0,
2010-01-14, 00:56:04,VALID,1004.9,VALID,0,VALID,94.7049,VALID,0,VALID,24.9885,VALID,343,VALID,0,
2010-01-14, 00:57:04,VALID,1004.87,VALID,0,VALID,94.6973,VALID,0,VALID,24.969,VALID,343,VALID,0,
2010-01-14, 00:58:04,VALID,1004.85,VALID,0,VALID,94.7125,VALID,0,VALID,24.9671,VALID,345,VALID,0,
2010-01-14, 00:59:04,VALID,1004.86,VALID,0,VALID,94.7125,VALID,0,VALID,24.9671,VALID,349,VALID,0,
2010-01-14, 01:00:04,VALID,1004.83,VALID,0,VALID,94.6897,VALID,0,VALID,24.9885,VALID,310,VALID,0,
2010-01-14, 01:01:04,VALID,1004.82,VALID,0,VALID,94.7125,VALID,0,VALID,24.9671,VALID,310,VALID,0,
2010-01-14, 01:02:04,VALID,1004.82,VALID,0,VALID,94.7049,VALID,0,VALID,24.9671,VALID,310,VALID,0,
2010-01-14, 01:03:04,VALID,1004.81,VALID,0,VALID,94.6897,VALID,0,VALID,25.0079,VALID,310,VALID,0,
2010-01-14, 01:04:04,VALID,1004.82,VALID,0,VALID,94.6973,VALID,0,VALID,25.0079,VALID,310,VALID,0,
2010-01-14, 01:05:04,VALID,1004.77,VALID,0,VALID,94.7049,VALID,0,VALID,25.0274,VALID,310,VALID,0,
2010-01-14, 01:06:04,VALID,1004.79,VALID,0,VALID,94.7125,VALID,0,VALID,25.0274,VALID,310,VALID,0,
2010-01-14, 01:07:04,VALID,1004.8,VALID,0,VALID,94.7125,VALID,0,VALID,25.0255,VALID,316,VALID,0,
2010-01-14, 01:08:04,VALID,1004.76,VALID,0,VALID,94.7125,VALID,0,VALID,25.0255,VALID,340,VALID,0,
2010-01-14, 01:09:04,VALID,1004.74,VALID,0,VALID,94.7125,VALID,0,VALID,25.0255,VALID,340,VALID,0,
2010-01-14, 01:10:04,VALID,1004.7,VALID,0,VALID,94.7125,VALID,0,VALID,25.0469,VALID,340,VALID,0,
2010-01-14, 01:11:04,VALID,1004.71,VALID,0,VALID,94.6973,VALID,0,VALID,25.0255,VALID,340,VALID,0,
2010-01-14, 01:12:04,VALID,1004.71,VALID,0,VALID,94.7202,VALID,0,VALID,25.0255,VALID,340,VALID,0,
2010-01-14, 01:13:04,VALID,1004.73,VALID,0,VALID,94.7125,VALID,0,VALID,25.0255,VALID,340,VALID,0,
2010-01-14, 01:14:04,VALID,1004.74,VALID,0,VALID,94.7202,VALID,0,VALID,25.045,VALID,340,VALID,0,
2010-01-14, 01:15:04,VALID,1004.73,VALID,0,VALID,94.7202,VALID,0,VALID,25.0469,VALID,340,VALID,0,
2010-01-14, 01:16:04,VALID,1004.72,VALID,0,VALID,94.7202,VALID,0,VALID,25.0255,VALID,340,VALID,0,
2010-01-14, 01:17:04,VALID,1004.72,VALID,0,VALID,94.7278,VALID,0,VALID,25.0663,VALID,341,VALID,0,
2010-01-14, 01:18:04,VALID,1004.71,VALID,0,VALID,94.7354,VALID,0,VALID,25.0663,VALID,344,VALID,0,
2010-01-14, 01:19:04,VALID,1004.7,VALID,0,VALID,94.7202,VALID,0,VALID,25.045,VALID,344,VALID,0,
2010-01-14, 01:20:04,VALID,1004.71,VALID,0,VALID,94.7202,VALID,0,VALID,25.0663,VALID,343,VALID,0,
2010-01-14, 01:21:04,VALID,1004.67,VALID,0,VALID,94.7202,VALID,0,VALID,25.0469,VALID,337,VALID,0,
2010-01-14, 01:22:04,VALID,1004.68,VALID,0,VALID,94.7202,VALID,0,VALID,25.0469,VALID,333,VALID,0,
2010-01-14, 01:23:04,VALID,1004.7,VALID,0,VALID,94.7202,VALID,0,VALID,25.0255,VALID,333,VALID,0,
2010-01-14, 01:24:04,VALID,1004.71,VALID,0,VALID,94.7431,VALID,0,VALID,25.0469,VALID,333,VALID,0,
2010-01-14, 01:25:04,VALID,1004.72,VALID,0,VALID,94.7278,VALID,0,VALID,25.0469,VALID,333,VALID,0,
2010-01-14, 01:26:04,VALID,1004.68,VALID,0,VALID,94.7583,VALID,0,VALID,25.0469,VALID,333,VALID,0,
2010-01-14, 01:27:04,VALID,1004.67,VALID,0,VALID,94.7431,VALID,0,VALID,25.0274,VALID,333,VALID,0,
2010-01-14, 01:28:04,VALID,1004.7,VALID,0,VALID,94.7354,VALID,0,VALID,25.0274,VALID,338,VALID,0,
2010-01-14, 01:29:04,VALID,1004.68,VALID,0,VALID,94.7507,VALID,0,VALID,25.0274,VALID,298,VALID,0.534766,
2010-01-14, 01:30:04,VALID,1004.67,VALID,0,VALID,94.7354,VALID,0,VALID,25.0469,VALID,282,VALID,0.383984,
2010-01-14, 01:31:04,VALID,1004.68,VALID,0,VALID,94.7278,VALID,0,VALID,25.0469,VALID,283,VALID,0,
2010-01-14, 01:32:04,VALID,1004.63,VALID,0,VALID,94.7354,VALID,0,VALID,25.0274,VALID,283,VALID,0,
2010-01-14, 01:33:04,VALID,1004.63,VALID,0,VALID,94.7278,VALID,0,VALID,25.0255,VALID,311,VALID,0,
2010-01-14, 01:34:04,VALID,1004.61,VALID,0,VALID,94.7431,VALID,0,VALID,25.0274,VALID,327,VALID,0,
2010-01-14, 01:35:04,VALID,1004.6,VALID,0,VALID,94.7354,VALID,0,VALID,25.0274,VALID,327,VALID,0,
2010-01-14, 01:36:04,VALID,1004.61,VALID,0,VALID,94.7507,VALID,0,VALID,25.0469,VALID,327,VALID,0,
2010-01-14, 01:37:04,VALID,1004.66,VALID,0,VALID,94.7431,VALID,0,VALID,25.0274,VALID,327,VALID,0,
2010-01-14, 01:38:04,VALID,1004.67,VALID,0,VALID,94.7507,VALID,0,VALID,25.0469,VALID,296,VALID,0,
2010-01-14, 01:39:04,VALID,1004.67,VALID,0,VALID,94.7583,VALID,0,VALID,25.0274,VALID,296,VALID,0,
2010-01-14, 01:40:04,VALID,1004.71,VALID,0,VALID,94.7507,VALID,0,VALID,25.0255,VALID,296,VALID,0,
2010-01-14, 01:41:04,VALID,1004.72,VALID,0,VALID,94.7431,VALID,0,VALID,25.0274,VALID,296,VALID,0,
2010-01-14, 01:42:04,VALID,1004.72,VALID,0,VALID,94.766,VALID,0,VALID,25.006,VALID,301,VALID,0.462109,
2010-01-14, 01:43:04,VALID,1004.75,VALID,0,VALID,94.7583,VALID,0,VALID,25.0274,VALID,301,VALID,0.350781,
2010-01-14, 01:44:04,VALID,1004.72,VALID,0,VALID,94.7736,VALID,0,VALID,25.0274,VALID,301,VALID,0.539844,
2010-01-14, 01:45:04,VALID,1004.73,VALID,0,VALID,94.7583,VALID,0,VALID,25.0079,VALID,301,VALID,0,
2010-01-14, 01:46:04,VALID,1004.72,VALID,0,VALID,94.7583,VALID,0,VALID,25.0274,VALID,301,VALID,0,
2010-01-14, 01:47:04,VALID,1004.69,VALID,0,VALID,94.7507,VALID,0,VALID,25.0274,VALID,301,VALID,0,
2010-01-14, 01:48:04,VALID,1004.67,VALID,0,VALID,94.766,VALID,0,VALID,25.0079,VALID,301,VALID,0,
2010-01-14, 01:49:04,VALID,1004.65,VALID,0,VALID,94.7507,VALID,0,VALID,24.9885,VALID,311,VALID,0,
2010-01-14, 01:50:04,VALID,1004.63,VALID,0,VALID,94.7507,VALID,0,VALID,24.969,VALID,317,VALID,0,
2010-01-14, 01:51:04,VALID,1004.6,VALID,0,VALID,94.766,VALID,0,VALID,24.969,VALID,319,VALID,0,
2010-01-14, 01:52:04,VALID,1004.56,VALID,0,VALID,94.7736,VALID,0,VALID,24.9282,VALID,355,VALID,0.575391,
2010-01-14, 01:53:04,VALID,1004.57,VALID,0,VALID,94.7736,VALID,0,VALID,24.9495,VALID,355,VALID,0,
2010-01-14, 01:54:04,VALID,1004.55,VALID,0,VALID,94.7736,VALID,0,VALID,24.9514,VALID,355,VALID,0,
2010-01-14, 01:55:04,VALID,1004.53,VALID,0,VALID,94.7583,VALID,0,VALID,24.93,VALID,358,VALID,0.716406,
2010-01-14, 01:56:04,VALID,1004.51,VALID,0,VALID,94.766,VALID,0,VALID,24.9106,VALID,359,VALID,0.700781,
2010-01-14, 01:57:04,VALID,1004.48,VALID,0,VALID,94.7583,VALID,0,VALID,24.8892,VALID,1,VALID,0.469531,
2010-01-14, 01:58:04,VALID,1004.47,VALID,0,VALID,94.7736,VALID,0,VALID,24.9106,VALID,350,VALID,0.352344,
2010-01-14, 01:59:04,VALID,1004.49,VALID,0,VALID,94.7812,VALID,0,VALID,24.8911,VALID,351,VALID,0.708984,
2010-01-14, 02:00:04,VALID,1004.46,VALID,0,VALID,94.7812,VALID,0,VALID,24.9106,VALID,352,VALID,0.438281,
2010-01-14, 02:01:04,VALID,1004.45,VALID,0,VALID,94.7736,VALID,0,VALID,24.8911,VALID,352,VALID,0.0148437,
2010-01-14, 02:02:04,VALID,1004.45,VALID,0,VALID,94.7812,VALID,0,VALID,24.9106,VALID,352,VALID,0,
2010-01-14, 02:03:04,VALID,1004.44,VALID,0,VALID,94.766,VALID,0,VALID,24.8911,VALID,352,VALID,0,
2010-01-14, 02:04:04,VALID,1004.42,VALID,0,VALID,94.7736,VALID,0,VALID,24.8911,VALID,351,VALID,0,
2010-01-14, 02:05:04,VALID,1004.4,VALID,0,VALID,94.7736,VALID,0,VALID,24.8697,VALID,289,VALID,0.00585938,
2010-01-14, 02:06:04,VALID,1004.39,VALID,0,VALID,94.7812,VALID,0,VALID,24.8911,VALID,338,VALID,0,
2010-01-14, 02:07:04,VALID,1004.38,VALID,0,VALID,94.7888,VALID,0,VALID,24.8716,VALID,338,VALID,0,
2010-01-14, 02:08:04,VALID,1004.38,VALID,0,VALID,94.7812,VALID,0,VALID,24.8716,VALID,338,VALID,0,
2010-01-14, 02:09:04,VALID,1004.38,VALID,0,VALID,94.7812,VALID,0,VALID,24.8503,VALID,338,VALID,0,
2010-01-14, 02:10:04,VALID,1004.36,VALID,0,VALID,94.7812,VALID,0,VALID,24.8716,VALID,337,VALID,0.0128906,
2010-01-14, 02:11:04,VALID,1004.32,VALID,0,VALID,94.7812,VALID,0,VALID,24.8716,VALID,337,VALID,0,
2010-01-14, 02:12:04,VALID,1004.3,VALID,0,VALID,94.7888,VALID,0,VALID,24.8716,VALID,342,VALID,0.292969,
2010-01-14, 02:13:04,VALID,1004.26,VALID,0,VALID,94.7888,VALID,0,VALID,24.8522,VALID,353,VALID,0,
2010-01-14, 02:14:04,VALID,1004.26,VALID,0,VALID,94.7812,VALID,0,VALID,24.8522,VALID,353,VALID,0,
2010-01-14, 02:15:04,VALID,1004.28,VALID,0,VALID,94.7812,VALID,0,VALID,24.8308,VALID,353,VALID,0,
2010-01-14, 02:16:04,VALID,1004.31,VALID,0,VALID,94.7888,VALID,0,VALID,24.8522,VALID,344,VALID,0,
2010-01-14, 02:17:04,VALID,1004.37,VALID,0,VALID,94.7888,VALID,0,VALID,24.8735,VALID,286,VALID,1.06406,
2010-01-14, 02:18:04,VALID,1004.42,VALID,0,VALID,94.8194,VALID,0,VALID,24.8308,VALID,285,VALID,0.9875,
2010-01-14, 02:19:04,VALID,1004.47,VALID,0,VALID,94.766,VALID,0,VALID,24.8716,VALID,296,VALID,0.632422,
2010-01-14, 02:20:04,VALID,1004.44,VALID,0,VALID,94.7888,VALID,0,VALID,24.8716,VALID,289,VALID,0.490234,
2010-01-14, 02:21:04,VALID,1004.51,VALID,0,VALID,94.7812,VALID,0,VALID,24.8503,VALID,295,VALID,0.797656,
2010-01-14, 02:22:04,VALID,1004.54,VALID,0,VALID,94.7965,VALID,0,VALID,24.8716,VALID,296,VALID,0.819922,
2010-01-14, 02:23:04,VALID,1004.55,VALID,0,VALID,94.7888,VALID,0,VALID,24.8522,VALID,287,VALID,0.836719,
2010-01-14, 02:24:04,VALID,1004.59,VALID,0,VALID,94.7736,VALID,0,VALID,24.8716,VALID,229,VALID,0.79375,
2010-01-14, 02:25:04,VALID,1004.6,VALID,0,VALID,94.7888,VALID,0,VALID,24.8503,VALID,265,VALID,1.99961,
2010-01-14, 02:26:04,VALID,1004.56,VALID,0.5,VALID,94.7965,VALID,0,VALID,24.8132,VALID,262,VALID,2.52227,
2010-01-14, 02:27:04,VALID,1004.51,VALID,0,VALID,94.827,VALID,0,VALID,24.7743,VALID,302,VALID,3.06445,
2010-01-14, 02:28:04,VALID,1004.54,VALID,0.5,VALID,94.8346,VALID,0,VALID,24.7548,VALID,239,VALID,1.27031,
2010-01-14, 02:29:04,VALID,1004.52,VALID,0,VALID,94.827,VALID,0,VALID,24.7353,VALID,208,VALID,0.592188,
2010-01-14, 02:30:04,VALID,1004.49,VALID,0.5,VALID,94.827,VALID,0,VALID,24.7159,VALID,254,VALID,0.734375,
2010-01-14, 02:31:04,VALID,1004.45,VALID,0,VALID,94.8422,VALID,0,VALID,24.6769,VALID,279,VALID,1.68516,
2010-01-14, 02:32:04,VALID,1004.38,VALID,0.5,VALID,94.8499,VALID,0,VALID,24.6361,VALID,253,VALID,0.119141,
2010-01-14, 02:33:04,VALID,1004.29,VALID,0.5,VALID,94.8422,VALID,0,VALID,24.6361,VALID,343,VALID,0.563672,
2010-01-14, 02:34:04,VALID,1004.26,VALID,0,VALID,94.8499,VALID,0,VALID,24.5796,VALID,231,VALID,0.726172,
2010-01-14, 02:35:04,VALID,1004.32,VALID,0.5,VALID,94.8575,VALID,0,VALID,24.4998,VALID,228,VALID,1.10547,
2010-01-14, 02:36:04,VALID,1004.4,VALID,0,VALID,94.8804,VALID,0,VALID,24.4628,VALID,278,VALID,1.23086,
2010-01-14, 02:37:04,VALID,1004.37,VALID,0.5,VALID,94.8804,VALID,0,VALID,24.4043,VALID,277,VALID,0.778516,
2010-01-14, 02:38:04,VALID,1004.34,VALID,0,VALID,94.8804,VALID,0,VALID,24.3636,VALID,75,VALID,0.261719,
2010-01-14, 02:39:04,VALID,1004.26,VALID,0.5,VALID,94.8804,VALID,0,VALID,24.3459,VALID,251,VALID,1.03086,
2010-01-14, 02:40:04,VALID,1004.2,VALID,0,VALID,94.9185,VALID,0,VALID,24.2273,VALID,206,VALID,0.252734,
2010-01-14, 02:41:04,VALID,1004.18,VALID,0,VALID,94.9185,VALID,0,VALID,24.1884,VALID,134,VALID,0.0425781,
2010-01-14, 02:42:04,VALID,1004.19,VALID,0.5,VALID,94.888,VALID,0,VALID,24.1494,VALID,276,VALID,0.322266,
2010-01-14, 02:43:04,VALID,1004.2,VALID,0,VALID,94.9109,VALID,0,VALID,24.1318,VALID,215,VALID,1.68438,
2010-01-14, 02:44:04,VALID,1004.24,VALID,0,VALID,94.9033,VALID,0,VALID,24.1123,VALID,271,VALID,0.294922,
2010-01-14, 02:45:04,VALID,1004.23,VALID,0,VALID,94.888,VALID,0,VALID,24.0929,VALID,262,VALID,0.00195313,
2010-01-14, 02:46:04,VALID,1004.2,VALID,0,VALID,94.8804,VALID,0,VALID,24.1142,VALID,337,VALID,0.644141,
2010-01-14, 02:47:04,VALID,1004.21,VALID,0,VALID,94.8804,VALID,0,VALID,24.1318,VALID,354,VALID,0.707422,
2010-01-14, 02:48:04,VALID,1004.23,VALID,0,VALID,94.8728,VALID,0,VALID,24.1318,VALID,315,VALID,0.539844,
2010-01-14, 02:49:04,VALID,1004.22,VALID,0,VALID,94.8651,VALID,0,VALID,24.1494,VALID,296,VALID,0.499609,
2010-01-14, 02:50:04,VALID,1004.21,VALID,0,VALID,94.8651,VALID,0,VALID,24.1707,VALID,267,VALID,1.17852,
2010-01-14, 02:51:04,VALID,1004.18,VALID,0,VALID,94.8651,VALID,0,VALID,24.1902,VALID,300,VALID,1.40664,
2010-01-14, 02:52:04,VALID,1004.2,VALID,0,VALID,94.8499,VALID,0,VALID,24.1707,VALID,284,VALID,0.872656,
2010-01-14, 02:53:04,VALID,1004.19,VALID,0,VALID,94.8804,VALID,0,VALID,24.1902,VALID,260,VALID,0.446484,
2010-01-14, 02:54:04,VALID,1004.17,VALID,0,VALID,94.8575,VALID,0,VALID,24.192,VALID,183,VALID,1.73047,
2010-01-14, 02:55:04,VALID,1004.2,VALID,0,VALID,94.8651,VALID,0,VALID,24.1902,VALID,294,VALID,0.550781,
2010-01-14, 02:56:04,VALID,1004.23,VALID,0.5,VALID,94.8728,VALID,0,VALID,24.1902,VALID,286,VALID,0.05625,
2010-01-14, 02:57:04,VALID,1004.23,VALID,0,VALID,94.8575,VALID,0,VALID,24.1902,VALID,279,VALID,0.265625,
2010-01-14, 02:58:04,VALID,1004.25,VALID,0,VALID,94.8651,VALID,0,VALID,24.1902,VALID,290,VALID,0.889453,
2010-01-14, 02:59:04,VALID,1004.23,VALID,0,VALID,94.8575,VALID,0,VALID,24.1689,VALID,277,VALID,0.102734,
2010-01-14, 03:00:04,VALID,1004.21,VALID,0,VALID,94.8728,VALID,0,VALID,24.1902,VALID,303,VALID,0.203906,
2010-01-14, 03:01:04,VALID,1004.22,VALID,0,VALID,94.8728,VALID,0,VALID,24.1707,VALID,303,VALID,0,
2010-01-14, 03:02:04,VALID,1004.2,VALID,0,VALID,94.8575,VALID,0,VALID,24.1902,VALID,241,VALID,0.467187,
2010-01-14, 03:03:04,VALID,1004.19,VALID,0,VALID,94.8499,VALID,0,VALID,24.1902,VALID,275,VALID,0.390234,
2010-01-14, 03:04:04,VALID,1004.18,VALID,0,VALID,94.8651,VALID,0,VALID,24.1689,VALID,275,VALID,0.267578,
2010-01-14, 03:05:04,VALID,1004.18,VALID,0,VALID,94.8499,VALID,0,VALID,24.2291,VALID,276,VALID,0.412891,
2010-01-14, 03:06:04,VALID,1004.14,VALID,0,VALID,94.8575,VALID,0,VALID,24.2291,VALID,324,VALID,0.450391,
2010-01-14, 03:07:04,VALID,1004.17,VALID,0,VALID,94.8575,VALID,0,VALID,24.2078,VALID,284,VALID,0.360938,
2010-01-14, 03:08:04,VALID,1004.25,VALID,0,VALID,94.8346,VALID,0,VALID,24.2681,VALID,282,VALID,0.108984,
2010-01-14, 03:09:04,VALID,1004.26,VALID,0.5,VALID,94.8422,VALID,0,VALID,24.2875,VALID,260,VALID,0,
2010-01-14, 03:10:04,VALID,1004.26,VALID,0,VALID,94.827,VALID,0,VALID,24.3265,VALID,210,VALID,1.41914,
2010-01-14, 03:11:04,VALID,1004.29,VALID,0,VALID,94.8651,VALID,0,VALID,24.2468,VALID,216,VALID,1.88164,
2010-01-14, 03:12:04,VALID,1004.21,VALID,0,VALID,94.9109,VALID,0,VALID,24.1707,VALID,197,VALID,1.63242,
2010-01-14, 03:13:04,VALID,1004.22,VALID,0,VALID,94.9033,VALID,0,VALID,24.1513,VALID,191,VALID,0.744141,
2010-01-14, 03:14:04,VALID,1004.27,VALID,0,VALID,94.9185,VALID,0,VALID,24.0716,VALID,285,VALID,1.5,
2010-01-14, 03:15:04,VALID,1004.29,VALID,0,VALID,94.888,VALID,0,VALID,24.0521,VALID,266,VALID,1.13516,
2010-01-14, 03:16:04,VALID,1004.37,VALID,0.5,VALID,94.9033,VALID,0.100563,VALID,24.0326,VALID,247,VALID,1.12109,
2010-01-14, 03:17:04,VALID,1004.41,VALID,0,VALID,94.8956,VALID,0,VALID,23.9937,VALID,291,VALID,0.984375,
2010-01-14, 03:18:04,VALID,1004.44,VALID,0,VALID,94.9262,VALID,0,VALID,23.9566,VALID,197,VALID,0.547656,
2010-01-14, 03:19:04,VALID,1004.44,VALID,0,VALID,94.9262,VALID,0,VALID,23.9177,VALID,228,VALID,2.06172,
2010-01-14, 03:20:04,VALID,1004.36,VALID,0,VALID,94.8956,VALID,0,VALID,23.8982,VALID,313,VALID,1.45547,
2010-01-14, 03:21:04,VALID,1004.35,VALID,0,VALID,94.9109,VALID,0,VALID,23.8787,VALID,162,VALID,0.559766,
2010-01-14, 03:22:04,VALID,1004.32,VALID,0,VALID,94.9109,VALID,0,VALID,23.838,VALID,216,VALID,2.06914,
2010-01-14, 03:23:04,VALID,1004.36,VALID,0,VALID,94.9414,VALID,0,VALID,23.8009,VALID,177,VALID,2.45,
2010-01-14, 03:24:04,VALID,1004.33,VALID,0,VALID,94.9338,VALID,0,VALID,23.7212,VALID,171,VALID,1.76211,
2010-01-14, 03:25:04,VALID,1004.35,VALID,0,VALID,94.9567,VALID,0,VALID,23.6062,VALID,207,VALID,1.32187,
2010-01-14, 03:26:04,VALID,1004.38,VALID,0,VALID,94.9414,VALID,0,VALID,23.5284,VALID,165,VALID,0.645312,
2010-01-14, 03:27:04,VALID,1004.38,VALID,0,VALID,94.9643,VALID,0,VALID,23.5089,VALID,169,VALID,0.676562,
2010-01-14, 03:28:04,VALID,1004.4,VALID,0,VALID,94.9338,VALID,0.100563,VALID,23.4487,VALID,151,VALID,1.46211,
2010-01-14, 03:29:04,VALID,1004.44,VALID,0,VALID,94.9033,VALID,0,VALID,23.4293,VALID,180,VALID,0.537891,
2010-01-14, 03:30:04,VALID,1004.44,VALID,0,VALID,94.888,VALID,0,VALID,23.4293,VALID,190,VALID,0.769141,
2010-01-14, 03:31:04,VALID,1004.4,VALID,0.5,VALID,94.9033,VALID,0,VALID,23.4311,VALID,226,VALID,1.74805,
2010-01-14, 03:32:04,VALID,1004.42,VALID,0,VALID,94.888,VALID,0,VALID,23.3904,VALID,212,VALID,0.655859,
2010-01-14, 03:33:04,VALID,1004.39,VALID,0,VALID,94.888,VALID,0,VALID,23.3337,VALID,208,VALID,1.36719,
2010-01-14, 03:34:04,VALID,1004.42,VALID,0,VALID,94.8651,VALID,0,VALID,23.2931,VALID,136,VALID,0.353516,
2010-01-14, 03:35:04,VALID,1004.38,VALID,0,VALID,94.8651,VALID,0,VALID,23.2754,VALID,224,VALID,0.301172,
2010-01-14, 03:36:04,VALID,1004.4,VALID,0,VALID,94.8728,VALID,0,VALID,23.2559,VALID,98,VALID,0.146484,
2010-01-14, 03:37:04,VALID,1004.39,VALID,0,VALID,94.8499,VALID,0,VALID,23.2364,VALID,98,VALID,0,
2010-01-14, 03:38:04,VALID,1004.34,VALID,0,VALID,94.8575,VALID,0,VALID,23.2364,VALID,98,VALID,0,
2010-01-14, 03:39:04,VALID,1004.36,VALID,0,VALID,94.8346,VALID,0,VALID,23.217,VALID,98,VALID,0,
2010-01-14, 03:40:04,VALID,1004.36,VALID,0,VALID,94.8194,VALID,0,VALID,23.2187,VALID,98,VALID,0,
2010-01-14, 03:41:04,VALID,1004.35,VALID,0,VALID,94.8194,VALID,0,VALID,23.1975,VALID,98,VALID,0,
2010-01-14, 03:42:04,VALID,1004.36,VALID,0,VALID,94.8117,VALID,0,VALID,23.1975,VALID,96,VALID,0,
2010-01-14, 03:43:04,VALID,1004.36,VALID,0,VALID,94.8117,VALID,0,VALID,23.2364,VALID,155,VALID,0.903516,
2010-01-14, 03:44:04,VALID,1004.35,VALID,0,VALID,94.8117,VALID,0,VALID,23.2559,VALID,166,VALID,0.543359,
2010-01-14, 03:45:04,VALID,1004.33,VALID,0,VALID,94.8117,VALID,0,VALID,23.2754,VALID,166,VALID,0,
2010-01-14, 03:46:04,VALID,1004.38,VALID,0,VALID,94.8041,VALID,0.100563,VALID,23.2736,VALID,166,VALID,0.0597656,
2010-01-14, 03:47:04,VALID,1004.36,VALID,0,VALID,94.7965,VALID,0,VALID,23.2948,VALID,166,VALID,0,
2010-01-14, 03:48:04,VALID,1004.38,VALID,0,VALID,94.8041,VALID,0,VALID,23.2736,VALID,166,VALID,0,
2010-01-14, 03:49:04,VALID,1004.41,VALID,0,VALID,94.7888,VALID,0,VALID,23.2948,VALID,127,VALID,0.111328,
2010-01-14, 03:50:04,VALID,1004.42,VALID,0,VALID,94.8041,VALID,0,VALID,23.2736,VALID,94,VALID,0,
2010-01-14, 03:51:04,VALID,1004.4,VALID,0,VALID,94.7888,VALID,0,VALID,23.2931,VALID,94,VALID,0,